If you wish to contribute or participate in the discussions about articles you are invited to join SKYbrary as a registered user

 Actions

Arak Airport

From SKYbrary Wiki

OIHR
Airport
ICAO: OIHR – IATA: AJK
Summary
Name Arak Airport
Region Middle East
Territory Iran IR.gif
Location Mobarak Abad, Markazi
Serving Arak
Elevation 1,662.074 m
5,453 ft1,662.074 m
Coordinates 34° 8' 1.82" N, 49° 50' 33.95" E
Runways
Designator Length Width Surface ROPS
8/26 2990 m9,809.711 ft
45 m147.638 ft
ASP /


METAR
Observation OIHR 090900Z 16014KT 9999 SCT040 35/M01 Q1014
Station Arak
Date/Time 09 July 2020 09:00:00
Wind direction 160°
Wind speed 14 kts
Lowest cloud amount scattered clouds
Temperature 35°C
Dew point
Humidity 10%
QNH 1014 hPa
Weather condition n/a

Airport serving Arak, Iran.

Climatology

Continental climate (Köppen climate classification Dsa).

Maps

Terrain

Loading map...

Airport Layout

Loading map...


Accidents & Serious Incidents at or in vicinity of OIHR

None on SKYbrary